COSMOS 2251 DEB

Satellite information

Favourite Embed

Satellite Type and Status

DEBRISIN ORBIT

Key statistics

Satellite COSMOS 2251 DEB at a glance.

Uptime

11870

Days in orbit

Revolutions

≈ 15.1

Per day

Orbit

LEO

Low Earth Orbit

Inclination

74.0

Latest

Satellite identification and parameters

Extended collection of information and parameters for COSMOS 2251 DEB.

Object identification

Identified? True

Debris? True

Object name: COSMOS 2251 DEB

International designator: 1993-036BXR

Object number (NORAD): 47061

Object ID (CCSDS): 47061

Country: COMMONWEALTH OF INDEPENDENT STATES (CIS)

Current information (Y/N): Y

RCS size: SMALL

Orbital parameters

Period: 95.581 minutes

Inclination: 74.0038 deg

SMA: 6924.827 km

Apoapsis: 563.368 km

Periapsis: 530.016 km

RAAN: 9.5788 deg

Eccentricy: 0.00240817

Argument of periapsis: 261.8819 deg

Mean anomaly: 129.6497 deg

Mean motion: 15.06570301 rev/day

Mean motion (dot): 0.00034857 rev/day2

B* drag term: 0.0023304193 1/REarth

Two-line elements (TLE)

Creation date: Sept. 19, 2025, 10:06 a.m.

Reference frame: TEME

Reference center: EARTH

Epoch: Sept. 19, 2025, 7:15 a.m. UTC

TLE line 0: 0 COSMOS 2251 DEB

TLE line 1: 1 47061U 93036BXR 25262.30214197 .00034857 00000-0 23304-2 0 9994

TLE line 2: 2 47061 74.0038 9.5788 0024082 261.8819 129.6497 15.06570301630960

Live tracking on map

Real-time ground track for satellite COSMOS 2251 DEB.

In-orbit conjunctions

A list of the most updated potential collisions computed for object COSMOS 2251 DEB.

Target Orbit TCA Probability of collision Miss distance Type
COSMOS 2251 DEB LEO 2024-11-13 03:33:08 0.001094475 280.0 (m) DEBRIS

Associated space launch

Military communications satellite. Destroyed in a collision with Iridium 33.

COSMOS 2251 DEB was lifted into orbit during the mission ‘Kosmos-3M | Strela-2M 51’, on board a Kosmos-3M space rocket.

The launch took place on June 16, 1993, 4:17 a.m. from 132/1 (132L).

For more information about the launch, click the button.

Launch to space Kosmos-3M | Strela-2M 51
Kosmos-3M | Strela-2M 51

Agency: N/A

Status: Launch Successful

Launch date: June 16, 1993, 4:17 a.m. UTC

Rocket: Kosmos-3M

Launch pad: 132/1 (132L)

Location: Plesetsk Cosmodrome, Russian Federation

...

Latest news about this satellite

There are no fresh news available about this satellite. Check back as we update our databases every day.


Newsletter sign-up

Weekly statistics, charts and insights to help you stay on top of the space industry.